Location: Asheville, NC
(35.6000°N, 82.5500°W)
Time: 16:32:26
(UTC-05:00)

CUBEBUG 2 - Pass Details

Date: 07 January 2018
Orbit: 587 x 699 km, 97.6° (Epoch: 17 January)

Event Time Altitude Azimuth Distance (km) Brightness Sun altitude
Rises 20:06:49 0° 207° (SSW) 2,804 ? -30.6°
Reaches altitude 10° 20:09:44 10° 230° (SW) 1,918 ? -31.2°
Maximum altitude 20:12:14 15° 267° (W) 1,606 ? -31.7°
Drops below altitude 10° 20:14:46 10° 304° (NW) 1,952 ? -32.2°
Sets 20:17:47 0° 327° (NNW) 2,882 ? -32.8°
